This is the latest recevied weather packets stored in our database for station/object E20ZNR-1. If no packets are shown the sender has not sent any weather packets the latest 1 day(s).
| Time | Temp. | Humidity | Pressure | Rain* | Wind** | Luminosity | Snow |
|---|---|---|---|---|---|---|---|
| 1778015132 | 26.67° C | 99% | 1005 hPa | - | 0 m/s | 0 W/m² | - |
| 1778014207 | 26.67° C | 99% | 1005 hPa | - | 0 m/s | 0 W/m² | - |
| 1778013282 | 26.67° C | 99% | 1005 hPa | - | 0 m/s | 0 W/m² | - |
| 1778012357 | 26.67° C | 99% | 1005 hPa | - | 0 m/s | 0 W/m² | - |
| 1778011432 | 26.67° C | 99% | 1005 hPa | - | 0 m/s | 0 W/m² | - |
| 1778010507 | 26.67° C | 99% | 1005 hPa | - | 0 m/s | 0 W/m² | - |
| 1778009582 | 26.67° C | 99% | 1005 hPa | - | 0 m/s | 0 W/m² | - |
| 1778008657 | 27.22° C | 99% | 1005 hPa | - | 0 m/s | 0 W/m² | - |
| 1778007732 | 27.22° C | 99% | 1005 hPa | - | 0 m/s | 0 W/m² | - |
| 1778006806 | 27.22° C | 99% | 1005 hPa | - | 0 m/s | 0 W/m² | - |
| 1778005882 | 27.22° C | 99% | 1005 hPa | - | 0 m/s | 0 W/m² | - |
| 1778004956 | 27.22° C | 99% | 1005 hPa | - | 0 m/s | 0 W/m² | - |
| 1778004031 | 27.78° C | 99% | 1005 hPa | - | 0 m/s | 0 W/m² | - |
| 1778003107 | 27.78° C | 99% | 1005 hPa | - | 0 m/s | 0 W/m² | - |
| 1778002181 | 28.33° C | 99% | 1005 hPa | - | 0 m/s | 0 W/m² | - |
| 1778001256 | 27.78° C | 99% | 1005 hPa | - | 0 m/s | 0 W/m² | - |
| 1778000330 | 28.33° C | 99% | 1006 hPa | - | 0 m/s | 0 W/m² | - |
| 1777999405 | 27.78° C | 99% | 1006 hPa | - | 0 m/s | 0 W/m² | - |
| 1777998480 | 28.89° C | 91% | 1006 hPa | - | 0 m/s | 0 W/m² | - |
| 1777997555 | 28.89° C | 92% | 1006 hPa | - | 0 m/s | 0 W/m² | - |
| 1777996629 | 28.33° C | 94% | 1007 hPa | - | 0 m/s | 0 W/m² | - |
| 1777995704 | 28.33° C | 90% | 1007 hPa | - | 0 m/s | 0 W/m² | - |
| 1777994779 | 28.89° C | 86% | 1007 hPa | - | 0 m/s | 0 W/m² | - |
| 1777993853 | 29.44° C | 89% | 1007 hPa | - | 0 m/s | 0 W/m² | - |
| 1777992930 | 29.44° C | 88% | 1006 hPa | - | 0 m/s | 0 W/m² | - |
* Rain since midnight (hover to see other rain measurements)
** Current wind speed in m/s (hover to see current wind gust speed)